Погода в Морге

Россия / Республика Мордовия     54°24′10″N   46°26′50″E
темп.,
°C
ветер,
м/с
пор.,
м/с
влажн.,
%
обл.,
%
осадки,
мм/ч
давл.,
гПа
погр.,
м
29 июня, ср
ср2900:00+9ссз22741 0.0 102020
03:00+7ссз22815 0.0 102127
06:00+10с47745 0.0 1021310
09:00+14ссв46625 0.0 1021946
12:00+16ссз455639 0.0 10201587
15:00+17ссз45554 0.0 10191684
18:00+16сз36675 0.0 1018524
21:00+12зсз32755 0.0 101820
30 июня, чт
чт3000:00+10зсз33850 0.0 101726
03:00+9з338487 0.0 101741
06:00+12зсз3877100 0.0 1016240
09:00+16сз5763100 0.0 1014597
12:00+19сз685266 0.0 10132088
15:00+19ссз685113 0.0 10131973
18:00+17сз586880 0.2 1012310
21:00+13св247696 0.4 101385
1 июля, пт
пт100:00+10с2281100 0.1 101411
03:00+9св2782100 0.1 1015151
06:00+9ссв510770 0.0 1016606
09:00+13с795934 0.0 10161523
12:00+14ссв71067100 0.3 10161750
15:00+15ссв8126554 0.6 10161605
18:00+13св41181100 0.7 1017858
21:00+11ссз3581100 0.7 1017115
2 июля, сб
сб200:00+11ссз38806 0.0 1017180
03:00+8ссз34865 0.0 101771
06:00+11ссз37784 0.0 1017194
09:00+17ссз46625 0.0 1017637
12:00+20с46505 0.0 10161709
15:00+21ссз56535 0.0 10151745
18:00+19ссз48689 0.0 1015385
21:00+15сз3375100 0.0 101621
3 июля, вс
вс300:00+13сз22895 0.0 101623
03:00+12сз22925 0.0 101623
06:00+15сз24845 0.0 1016155
09:00+20сз45675 0.0 1016557
12:00+23ссз45575 0.0 10161639
15:00+23сз3562100 0.0 10151216
18:00+20сз2275100 0.0 101541
21:00+19з2269100 0.0 101618